Regional Weather Roundup
Issued by NWS

Home | Current Version | Previous Version | Text Only | Print | Product List | Glossary Off
Versions: 1 2 3 4 5 6 7 8 9 10 11 12 13 14 15 16 17 18 19 20 21 22 23 24 25 26 27 28 29 30 31 32 33 34 35 36 37 38 39 40 41 42 43 44 45 46 47 48 49 50

000
ASUS44 KMEG 040010
RWRTN
TENNESSEE HOURLY STATE WEATHER ROUNDUP
NATIONAL WEATHER SERVICE MEMPHIS TN
700 PM CDT MON AUG 03 2015

TNZ002-004-019-021-049-052-054-088>092-040100-
WEST TENNESSEE

CITY           SKY/WX    TMP DP  RH WIND       PRES   REMARKS
MEMPHIS INTL   PTSUNNY   91  67  44 SW6       29.91S HX  94
NWS MEMPHIS      N/A     90 N/A N/A MISG        N/A
JACKSON        MOSUNNY   91  70  49 W6        29.92R HX  96
DYERSBURG        N/A    N/A N/A N/A MISG        N/A
PARIS          SUNNY     86  70  58 CALM      29.92F HX  90
LEXINGTON      CLEAR     90  72  55 CALM      29.91S HX  96
$$

TNZ008-025-027-028-033-062-065-066-040100-
NORTH MIDDLE TENNESSEE

CITY           SKY/WX    TMP DP  RH WIND       PRES   REMARKS
NASHVILLE      MOCLDY    91  64  40 W5        29.92S HX  92
CLARKSVILLE    PTCLDY    87  70  56 W6        29.91S HX  92
SMYRNA         PTCLDY    91  70  50 W7        29.92S HX  96
CROSSVILLE     CLEAR     81  68  64 CALM      30.01R
$$

TNZ061-075-076-078-094-096-097-040100-
SOUTH MIDDLE TENNESSEE

CITY           SKY/WX    TMP DP  RH WIND       PRES   REMARKS
FAYETTEVILLE     N/A     84  68  58 CALM      29.95R
TULLAHOMA        N/A     86  70  58 CALM      29.96S HX  90
SHELBYVILLE    CLEAR     90  70  51 NW5       29.94R HX  95
$$

TNZ017-018-042-046-047-040100-
NORTHEAST TENNESSEE

CITY           SKY/WX    TMP DP  RH WIND       PRES   REMARKS
TRI CITIES     PTCLDY    85  58  39 W7        29.98R
ELIZABETHTON   CLEAR     75  64  69 NW3       29.99R
$$

TNZ012-013-036-069-073-074-040100-
CENTRAL EAST TENNESSEE

CITY           SKY/WX    TMP DP  RH WIND       PRES   REMARKS
KNOXVILLE      PTCLDY    87  58  37 SW5       29.94R
OAK RIDGE      CLEAR     88  64  44 CALM      29.96R
$$

TNZ083-085-099-040100-
SOUTHEAST TENNESSEE

CITY           SKY/WX    TMP DP  RH WIND       PRES   REMARKS
CHATTANOOGA    PTCLDY    91  60  35 N3        29.93R HX  90
$$

SKY/WX REPORTED AS FAIR MEANS FEW OR NO CLOUDS BELOW
12 THOUSAND FEET.



USA.gov is the U.S. government's official web portal to all federal, state and local government web resources and services.